Location: Unspecified
(40.7945°N, 111.1337°W)
Time: 16:44:50
(UTC-06:00)

Altair - Pass Details

Date: 29 June 2019
Orbit: 1501 x 1683 km, 47.2° (Epoch: 19 July)

Event Time Altitude Azimuth Distance (km) Brightness Sun altitude
Rises 21:30:40 0° 272° (W) 4,694 11.1 -5.6°
Reaches altitude 10° 21:33:45 10° 277° (W) 3,732 10.6 -6.0°
Maximum altitude 21:43:07 60° 356° (N) 1,788 8.1 -7.4°
Drops below altitude 10° 21:52:53 10° 76° (ENE) 3,877 9.3 -8.8°
Sets 21:56:10 0° 80° (E) 4,885 9.8 -9.3°
